Location: Pine Mountain Observatory
(43.7910°N, 120.9377°W)
Time: 08:16:04
(UTC-07:00)

Explorer 11/Cluster Stage 4 - Pass Details

Date: 04 June 2019
Orbit: 467 x 1260 km, 28.8° (Epoch: 16 June)

Event Time Altitude Azimuth Distance (km) Brightness Sun altitude
Rises 02:57:59 0° 255° (WSW) 4,079 - -18.6°
Reaches altitude 10° 03:02:09 10° 237° (WSW) 3,000 - -18.3°
Maximum altitude 03:06:28 17° 201° (SSW) 2,390 - -17.9°
Drops below altitude 10° 03:10:25 10° 164° (SSE) 2,675 - -17.5°
Exits shadow 03:11:42 - 155° (SSE) 2,925 9.2 -17.4°
Sets 03:13:50 0° 144° (SE) 3,452 9.7 -17.2°
